Regional Weather Roundup
Issued by NWS Upton, NY

Current Version | Previous Version | Text Only | Print | Product List | Glossary On
Versions: 1 2 3 4 5 6 7 8 9 10 11 12 13 14 15 16 17 18 19 20 21 22 23 24 25 26 27
000 ASUS41 KOKX 260604 RWROKX REGIONAL WEATHER ROUNDUP NATIONAL WEATHER SERVICE NEW YORK NY 200 AM EDT TUE JUL 26 2016 NOTE: "FAIR" INDICATES FEW OR NO CLOUDS BELOW 12,000 FEET WITH NO SIGNIFICANT WEATHER AND/OR OBSTRUCTIONS TO VISIBILITY. NYZ071-072-176-178-NJZ106-104-260700- NEW YORK CITY METRO AREA CITY SKY/WX TMP DP RH WIND PRES REMARKS Central Park CLEAR 73 71 93 W6 29.89F LaGuardia APRT PTCLDY 77 71 82 W9 29.86S Kennedy INTL PTCLDY 76 70 82 W13 29.87S Newark/Liberty PTCLDY 74 71 91 W9 29.87S Bronx Bot Gard N/A 73 68 83 W6 29.87F Wall St Helipt CLEAR 75 72 88 N3 29.87F Teterboro CLEAR 74 69 85 W3 29.86F $$ NYZ177-179-078>081-260700- LONG ISLAND NEW YORK CITY SKY/WX TMP DP RH WIND PRES REMARKS Farmingdale CLEAR 75 72 90 NW7 29.85F MacArthur/ISP CLEAR 73 72 96 W9 29.84S Shirley CLEAR 73 71 93 W8 29.85S Riverhead NOT AVBL Westhampton PTCLDY 72 70 93 W10 29.85S Southhampton N/A 72 70 94 NW3 29.80S Bridgehampton N/A 72 72 100 S1 29.82F East Hampton CLOUDY 73 70 93 W5 29.83S Montauk N/A 73 71 93 W10 29.83F $$ NYZ052-065-067-260700- HUDSON VALLEY CITY SKY/WX TMP DP RH WIND PRES REMARKS White Plains PTCLDY 72 69 90 W6 29.86F Newburgh PTCLDY 70 70 100 W9 29.89F Montgomery CLEAR 69 68 96 SW6 29.87F Poughkeepsie PTCLDY 72 68 87 CALM 29.85S Albany CLOUDY 73 69 87 CALM 29.84S $$ NJZ001-105-106-008-010-013-015-019>022-104-260700- NEW JERSEY CITY SKY/WX TMP DP RH WIND PRES REMARKS Newark/Liberty PTCLDY 74 71 91 W9 29.87S Teterboro CLEAR 74 69 85 W3 29.86F Caldwell CLEAR 72 70 93 SW3 29.88F Morristown CLEAR 70 66 88 W3 29.88F Somerville CLEAR 72 70 93 CALM 29.87F Linden FAIR 73 71 92 CALM 29.89F Sussex CLEAR 69 69 100 CALM 29.89F Abdover N/A 69 67 93 SW5 29.91F Trenton CLEAR 73 70 90 W5 29.89S Millville MOCLDY 74 71 91 NW5 29.91R Atlantic City MOCLDY 75 72 90 W5 29.89S Wrightstown CLEAR 73 71 96 NW5 29.87R Toms River CLEAR 72 71 97 W8 29.89R Belmar CLEAR 72 71 97 W6 29.89R $$ PAZ047>061-062-071-260700- EASTERN PENNSYLVANIA CITY SKY/WX TMP DP RH WIND PRES REMARKS Philadelphia PTCLDY 76 73 91 SW8 29.91S Allentown CLEAR 68 66 93 W3 29.91F Scranton CLEAR 69 67 93 SW7 29.93F $$ CTZ002-004>006-009-010-012-RIZ004-006-007-MAZ004-011-015-260700- SOUTHERN NEW ENGLAND IN CT CITY SKY/WX TMP DP RH WIND PRES REMARKS Bradley INTL CLEAR 73 65 75 SW6 29.80F Hartford CLEAR 75 68 78 CALM 29.81F Danbury CLEAR 70 67 90 W8 29.87F Wtrbury/Oxford N/A 70 64 83 W5 29.86F Bridgeport CLEAR 73 70 90 W8 29.83F Meriden CLEAR 70 67 90 S3 29.83F New Haven CLEAR 72 69 90 VRB3 29.83F Chester FAIR 70 70 100 CALM 29.83F Groton CLEAR 73 69 87 W7 29.81S Wilimantic NOT AVBL IN RI CITY SKY/WX TMP DP RH WIND PRES REMARKS Providence CLEAR 74 68 81 W8 29.79F Block Island MOCLDY 71 70 96 W16G22 29.82S Westerly CLEAR 73 69 87 W5 29.82F IN MA CITY SKY/WX TMP DP RH WIND PRES REMARKS Boston CLEAR 79 69 71 W12 29.75F Worchester CLEAR 71 67 87 W12 29.82F Westfield CLEAR 71 67 87 E3 29.81F Provincetown CLEAR 71 70 96 SW9 29.77S Nantucket CLOUDY 72 70 93 W13 29.79F $$ ANZ330-335-338-340-345-350-353-355-260700- COASTAL MARINE OBSERVATIONS STATION/POSITION TIME SKY/WX TEMP WIND PRES VSBY WAVE AIR SEA DIR/SP/G HT/PER (UTC) (F) (DEG/KT/KT) (MB) (MI) (FT/S) NY HARB ENTRANCE 0450 72 73 260/ 10/ 10 1010.9 2/ 4 20S FIRE ISLAND 0450 75 73 260/ 10/ 12 1010.1 2/ 4 GREAT SOUTH BAY 0500 77 80 250/ 17/ 23 N/A 23 SSW MONTAUK P 0450 73 73 260/ 16/ 17 1010.1 3/ 5 15 E BARNEGAT LI 0522 75 N/A 2/ 6 HUDSON CANYON 0450 76 77 1010.4 2/ 4 KINGS POINT 0500 75 72 1011.3 EXECUTION ROCKS 0500 74 250/ 6/ 10 N/A CENTRAL LI SOUND 0500 74 74 270/ 16/ 21 N/A 2/ 4 EASTERN LI SOUND 0500 72 68 280/ 10/ 14 N/A ROBBINS REEF 0506 74 270/ 14/ 17 1010.8 $$ >>>>>>>>>>>>>>>>>>>>>>>>>>>> KEY <<<<<<<<<<<<<<<<<<<<<<<<<<< > < > SKY/WX - Sky Condition/Present Weather < > TMP - Temperature in Fahrenheit < > DP - Dew Point in Fahrenheit < > RH - Relative Humidity in Percent < > WIND - Direction (from) and Speed in MPH < > PRES - Mean Sea Level Pressure (inches of Hg) < > WCI - Wind Chill Index < > VSB - VISIBILITY IN MILES < > HX - HEAT INDEX < > TC - TEMPERATURE IN CELSIUS < > VRB - VARIABLE WIND DIRECTION < > < >>>>>>>>>>>>>>>>>>>>>>>>>>>> KEY <<<<<<<<<<<<<<<<<<<<<<<<<<<

USA.gov is the U.S. government's official web portal to all federal, state and local government web resources and services.